FW3074 Weather Reports


time (UTC)temp
C
wind
direction
speed
KPH
gust
KPH
rain 1hr
cm
rain 24hr
cm
rain mn
cm
humidity
%
barometer
mb
20260507074630 13 293 3.2 6.4 0.00 0.00 0.00 38 1016.6
20260507073028 13 305 3.2 6.4 0.00 0.00 0.00 38 1016.5
20260507071527 13 312 0.0 3.2 0.00 0.00 0.00 38 1016.5
20260507070024 13 314 0.0 4.8 0.00 0.00 0.00 37 1016.4
20260507064523 14 301 0.0 6.4 0.00 0.00 0.00 37 1016.2
20260507063022 14 312 4.8 6.4 0.00 0.00 0.00 36 1016.2
20260507061523 14 134 0.0 0.0 0.00 0.00 0.00 36 1016.0
20260507060023 15 134 0.0 0.0 0.00 0.00 0.00 34 1015.7
20260507054522 16 188 1.6 8.0 0.00 0.00 0.00 33 1015.6
20260507053020 17 200 1.6 6.4 0.00 0.00 0.00 32 1015.5
20260507051521 17 217 3.2 9.7 0.00 0.00 0.00 32 1015.5
20260507050037 17 218 4.8 8.0 0.00 0.00 0.00 32 1015.4
20260507044519 17 209 4.8 11.3 0.00 0.00 0.00 32 1015.3
20260507043019 18 170 3.2 9.7 0.00 0.00 0.00 31 1015.2
20260507041518 18 178 6.4 14.5 0.00 0.00 0.00 30 1015.1
20260507040017 18 158 6.4 16.1 0.00 0.00 0.00 30 1014.9
20260507034520 18 170 8.0 16.1 0.00 0.00 0.00 30 1014.7
20260507033018 18 184 8.0 14.5 0.00 0.00 0.00 29 1014.4
20260507031516 19 174 6.4 12.9 0.00 0.00 0.00 29 1014.2
20260507030017 19 198 6.4 16.1 0.00 0.00 0.00 28 1014.1
20260507024516 20 204 6.4 16.1 0.00 0.00 0.00 28 1013.8
20260507023014 20 172 9.7 16.1 0.00 0.00 0.00 27 1013.6
20260507021514 20 203 11.3 20.9 0.00 0.00 0.00 27 1013.4
20260507020013 21 193 12.9 24.1 0.00 0.00 0.00 26 1013.4
20260507014512 21 162 11.3 22.5 0.00 0.00 0.00 25 1013.2
20260507013011 22 192 12.9 25.7 0.00 0.00 0.00 25 1013.1
20260507011514 22 179 12.9 22.5 0.00 0.00 0.00 24 1013.1
20260507010016 22 170 14.5 22.5 0.00 0.00 0.00 24 1013.1
20260507004510 23 240 12.9 19.3 0.00 0.00 0.00 23 1013.2
20260507003008 23 190 12.9 24.1 0.00 0.00 0.00 23 1013.0
20260507001508 23 199 14.5 29.0 0.00 0.00 0.00 23 1013.1
20260507000008 24 186 11.3 25.7 0.00 0.00 0.00 23 1013.0
20260506234505 24 175 16.1 25.7 0.00 0.00 0.00 22 1012.9
20260506233004 24 194 14.5 25.7 0.00 0.00 0.00 22 1013.0
20260506231506 24 190 11.3 30.6 0.00 0.00 0.00 22 1013.2
20260506230003 25 211 11.3 27.4 0.00 0.00 0.00 21 1013.3
20260506224500 24 209 12.9 20.9 0.00 0.00 0.00 22 1013.4
20260506223105 24 194 12.9 22.5 0.00 0.00 0.00 21 1013.5
20260506221605 24 245 8.0 16.1 0.00 0.00 0.00 22 1013.7
20260506220057 25 213 8.0 27.4 0.00 0.00 0.00 22 1014.0
20260506214559 24 144 11.3 27.4 0.00 0.00 0.00 22 1014.0
20260506213057 23 238 8.0 19.3 0.00 0.00 0.00 22 1014.2
20260506211554 23 213 8.0 19.3 0.00 0.00 0.00 22 1014.3
20260506210049 23 203 8.0 22.5 0.00 0.00 0.00 23 1014.5
20260506204548 23 187 4.8 24.1 0.00 0.00 0.00 23 1014.8
20260506203046 23 226 8.0 16.1 0.00 0.00 0.00 23 1015.0
20260506201544 22 143 14.5 24.1 0.00 0.00 0.00 23 1015.1
20260506200044 22 191 11.3 20.9 0.00 0.00 0.00 24 1015.4
20260506194543 22 191 9.7 24.1 0.00 0.00 0.00 25 1015.5
20260506193046 21 251 4.8 17.7 0.00 0.00 0.00 25 1015.5
20260506191535 21 107 11.3 19.3 0.00 0.00 0.00 25 1015.8
20260506190033 21 154 8.0 17.7 0.00 0.00 0.00 24 1015.9
20260506184537 21 190 8.0 17.7 0.00 0.00 0.00 25 1016.1
20260506183032 21 257 9.7 37.0 0.00 0.00 0.00 26 1016.5
20260506181540 21 266 11.3 24.1 0.00 0.00 0.00 26 1016.4
20260506180027 20 221 9.7 16.1 0.00 0.00 0.00 26 1016.4
20260506174528 20 52 6.4 16.1 0.00 0.00 0.00 27 1016.5
20260506173042 19 143 4.8 14.5 0.00 0.00 0.00 27 1016.6
20260506171523 19 61 3.2 12.9 0.00 0.00 0.00 27 1016.6
20260506170019 18 318 4.8 14.5 0.00 0.00 0.00 28 1016.6
20260506164517 18 180 4.8 11.3 0.00 0.00 0.00 29 1016.6
20260506163017 17 111 3.2 9.7 0.00 0.00 0.00 30 1016.6
20260506161511 17 22 4.8 14.5 0.00 0.00 0.00 30 1016.6
20260506160010 17 213 0.0 9.7 0.00 0.00 0.00 33 1016.6
20260506154508 16 28 1.6 9.7 0.00 0.00 0.00 35 1016.5
20260506153003 16 17 3.2 11.3 0.00 0.00 0.00 36 1016.6
20260506151600 15 356 1.6 9.7 0.00 0.00 0.00 39 1016.7
20260506150055 13 33 1.6 9.7 0.00 0.00 0.00 41 1016.6
20260506144556 12 17 4.8 8.0 0.00 0.00 0.00 42 1016.5
20260506143048 11 355 3.2 8.0 0.00 0.00 0.00 44 1016.6
20260506141547 10 7 4.8 12.9 0.00 0.00 0.00 46 1016.6
20260506140046 9 332 4.8 8.0 0.00 0.00 0.00 48 1016.5
20260506134545 8 327 1.6 6.4 0.00 0.00 0.00 50 1016.6
20260506133056 6 315 1.6 8.0 0.00 0.00 0.00 53 1016.4
20260506131543 6 313 0.0 0.0 0.00 0.00 0.00 55 1016.2
20260506130041 5 6 0.0 0.0 0.00 0.00 0.00 57 1015.7
20260506124538 5 6 0.0 3.2 0.00 0.00 0.00 58 1015.4
20260506123037 5 37 0.0 0.0 0.00 0.00 0.00 58 1015.3
20260506121535 4 336 1.6 4.8 0.00 0.00 0.00 59 1015.3
20260506120033 3 334 0.0 0.0 0.00 0.00 0.00 61 1015.0
20260506114536 3 334 0.0 0.0 0.00 0.00 0.00 57 1014.8
20260506113028 5 334 0.0 0.0 0.00 0.00 0.00 58 1014.8
20260506111527 5 334 0.0 0.0 0.00 0.00 0.00 57 1014.7
20260506110026 5 334 0.0 0.0 0.00 0.00 0.00 55 1014.7
20260506104550 5 338 0.0 4.8 0.00 0.00 0.00 59 1014.8
20260506103023 5 302 0.0 0.0 0.00 0.00 0.00 57 1014.7
20260506101518 5 302 0.0 0.0 0.00 0.00 0.00 56 1014.5
20260506100017 5 302 0.0 0.0 0.00 0.00 0.00 56 1014.2
20260506094515 5 302 0.0 0.0 0.00 0.00 0.00 56 1014.3
20260506093014 6 302 0.0 4.8 0.00 0.00 0.00 56 1014.2
20260506091510 6 296 0.0 0.0 0.00 0.00 0.00 54 1014.0
20260506090007 6 296 0.0 0.0 0.00 0.00 0.00 55 1013.6
20260506084506 7 296 0.0 6.4 0.00 0.00 0.00 53 1013.7
20260506083003 7 305 0.0 0.0 0.00 0.00 0.00 52 1013.7
20260506081602 7 305 0.0 4.8 0.00 0.00 0.00 52 1013.4
20260506080104 8 305 3.2 4.8 0.00 0.00 0.00 51 1013.3